Flag for U.S.A. Weather past 2 weeks in Greensboro, North Carolina, U.S.A.

Now
65 °F

Light rain. Fog.


Feels Like: 65 °F
Forecast: 64 / 78 °F
Wind: 13 mph from Northeast

Location: Piedmont Triad International Airport

Current Time: Aug 1, 2014 at 9:04:05 PM

Latest Report: Aug 1, 2014 at 7:54 PM


Visibility: 1 mi

Pressure: 30.09 "Hg

Humidity: 97%

Dew point: 64 °F

Location of GreensboroLocation

Historic Weather in Greensboro — Graph

°F

Greensboro temperature yesterday

Maximum temperature yesterday: 78 °F (at 4:54 PM)
Minimum temperature yesterday: 64 °F (at 5:54 AM)
Average temperature yesterday: 71 °F

Past Weeks' High & Low Weather Summary

 TemperatureHumidityPressure
High91 °F (Jul 23, 4:54 PM)100% (Jul 22, 5:54 AM)30.19 "Hg (Jul 22, 5:54 AM)
Low61 °F (Jul 30, 5:54 AM)36% (Jul 28, 4:54 PM)29.74 "Hg (Jul 28, 12:54 AM)
Average74 °F75%30.02 "Hg
* Reported Jul 17 7:54 PM — Aug 1 7:54 PM, Greensboro, Weather by CustomWeather, © 2014

Note: Actual official high and low records may vary slightly from our data, if they occured in-between our weather recording intervals... More about our weather records

Advertising

Greensboro weather history for previous 24 hours

 ConditionsComfort  
Time TempWeatherWind HumidityBarometerVisibility
7:54 PM
Aug 1
65 °FLight rain. Fog.13 mph97%30.09 "Hg1 mi
6:54 PM65 °FLight rain. Fog.12 mph97%30.08 "Hg1 mi
5:54 PM66 °FLight rain. Fog.10 mph96%30.08 "Hg2 mi
4:54 PM67 °FLight rain. Fog.10 mph97%30.08 "Hg4 mi
3:54 PM67 °FLight rain. Fog.10 mph97%30.08 "Hg3 mi
2:54 PM67 °FLight rain. Fog.9 mph97%30.10 "Hg4 mi
1:54 PM67 °FLight rain. Fog.9 mph97%30.12 "Hg6 mi
12:54 PM66 °FLight rain. Fog.9 mph93%30.12 "Hg3 mi
11:54 AM65 °FRain. Fog.9 mph97%30.13 "Hg2 mi
10:54 AM64 °FRain. Fog.8 mph100%30.14 "Hg2 mi
9:54 AM65 °FRain. Fog.6 mph97%30.14 "Hg3 mi
8:54 AM64 °FLight rain. Fog.7 mph97%30.14 "Hg4 mi
7:54 AM64 °FRain. Fog.10 mph97%30.13 "Hg2 mi
7:02 AM64 °FLight rain. Fog.6 mph94%30.13 "Hg5 mi
6:54 AM64 °FLight rain. Fog.8 mph97%30.10 "Hg5 mi
5:54 AM64 °FRain. Fog.7 mph97%30.10 "Hg5 mi
4:54 AM65 °FLight rain. Overcast.6 mph97%30.11 "Hg7 mi
3:54 AM66 °FLight rain. Mostly cloudy.3 mph96%30.11 "Hg7 mi
2:54 AM67 °FLight rain. Passing clouds.7 mph97%30.10 "Hg9 mi
1:54 AM67 °FLight rain. Fog.5 mph100%30.11 "Hg6 mi
12:54 AM67 °FLight rain. Mostly cloudy.3 mph97%30.14 "Hg8 mi
11:54 PM
Jul 31
68 °FLight rain. Fog.8 mph96%30.14 "Hg5 mi
10:54 PM69 °FLight rain. Overcast.No wind90%30.14 "Hg9 mi
9:54 PM69 °FLight rain. Mostly cloudy.No wind87%30.13 "Hg10 mi
Weather by CustomWeather, © 2014

See weather overviewHow to use our weather pages